"Pseudo-MPEC" for P10Gxqm

Created 2018 Feb 25 15:18:07 UT using Find_Orb

Click here for an explanation of pseudo-MPECs

 
 Astrometry: 
     P10Gxqm  C2018 02 12`xAstrometry`h2hk@afJUZh0+W6_fY[M\Lb*b=j:#2F$G-Dq$:4F51
     P10Gxqm  C2018 02 12Et%_`^@gW:ZaVw+pUvUvCb@oXx/Nf.km=)h*!ED[`3kJBcGw9j93F51
     P10Gxqm  C2018 02 12_K1HyRWCJs'l#(7QVredacted;Qw'M`NJTr=g2hSZg+kC(/.@lv0F51
     P10Gxqm  C2018 02 12+R;(YhCa8wZUlCqdr.+h$nPx`*tJ6Mer`S;HEl(T1NQ\._$DH(lyF51
     P10Gxqm  C2018 02 12'-]UWs(Cliva7B.sP?G(!/D:jH88*_keseelOA##FHlw0]sVI7WQF51
     P10Gxqm  C2018 02 12lAua1wSI\8o!^xBb.Il_3*X+:(vL3Bmc)$:7'v)PxhNtPOt8RAR?F51
     P10Gxqm  C2018 02 12%0$?lTEvlCZJ]qR4T\fB1`L:5?l0qe5[i.NCT.sFQSqh$#YNEOCPF51
     P10Gxqm _C2018 02 13.34616310 21 17.007+14 59 49.04         20.6 GUNEOCP568
     P10Gxqm _C2018 02 13.34711510 21 17.559+14 59 47.61         20.6 GUNEOCP568
     P10Gxqm _C2018 02 13.34805910 21 18.108+14 59 46.22         20.6 GUNEOCP568

Station data:
(568) Mauna Kea  (N19.826114 W155.472200)  US/Hawaii.  Observer D. J. Tholen.
   2.24-m University of Hawaii reflector.
(F51) Pan-STARRS 1, Haleakala  (N20.707234 W156.255910)  US/Hawaii.
   Observers N. Primak, A. Schultz, S. Watters, J. Thiel, T. Goggia. Measurer
   PS1 Science Consortium. 1.8-m Ritchey-Chrétien + CCD.

Orbital elements:  P10Gxqm
   Perihelion 2018 Feb 1.463566 +/- 5.15 TT = 11:07:32 (JD 2458150.963566)
Epoch 2018 Feb 13.0 TT = JDT 2458162.5   Earth MOID: 0.0696   Ju: 0.5944
M   2.46409 +/- 1.5                 Ma: 0.0473                AutoNEOCP
n   0.21359225 +/- 0.0745           Peri.  354.74884 +/- 340
a   2.77169679 +/- 0.645            Node   136.47343 +/- 0.6
e   0.6194098 +/- 0.0832            Incl.    2.25017 +/- 0.12
P   4.61                   H 26.1   G  0.15   U 11.0  
q 1.05488043 +/- 0.0196    Q 4.48851314 +/- 1.68
From 10 observations 2018 Feb. 12-13 (22.7 hr); mean residual 0".09
Residuals in arcseconds: 
180212 F51  .26+  .02-    180212 F51  .02-  .01+    180213 568  .01-  .01-    
180212 F51  .25-  .04+    180212 F51  .08+  .08-    180213 568  .00   .00     
180212 F51  .10+  .00     180212 F51  .02-  .04+    
180212 F51  .14-  .00     180213 568  .01+  .01+    

Ephemerides (geocentric):
Date (UTC) HH   RA              Dec         delta   r     elong  mag " sig PA
---- -- -- --  ------------   ------------  ------ ------ -----  --- ---- ---
2018 02 25 15  11 46 26.947   +10 09 25.93  .11649 1.1014 162.1 22.5 9367 105
2018 02 25 16  11 46 37.588   +10 08 40.03  .11664 1.1015 162.1 22.5 9402 105
2018 02 25 17  11 46 48.195   +10 07 54.24  .11680 1.1017 162.0 22.5 9436 105
2018 02 25 18  11 46 58.768   +10 07 08.54  .11695 1.1018 162.0 22.5 9471 105
2018 02 25 19  11 47 09.307   +10 06 22.93  .11711 1.1020 162.0 22.5 9506 105
2018 02 25 20  11 47 19.812   +10 05 37.42  .11727 1.1021 162.0 22.5 9541 105
2018 02 25 21  11 47 30.284   +10 04 52.01  .11742 1.1023 162.0 22.5 9576 105
2018 02 25 22  11 47 40.722   +10 04 06.69  .11758 1.1024 162.0 22.5 9610 105
2018 02 25 23  11 47 51.127   +10 03 21.46  .11773 1.1026 162.0 22.5 9645 105
2018 02 26 00  11 48 01.498   +10 02 36.34  .11789 1.1028 162.0 22.5 9679 105
2018 02 26 01  11 48 11.836   +10 01 51.30  .11805 1.1029 162.0 22.5 9714 105
2018 02 26 02  11 48 22.141   +10 01 06.37  .11820 1.1031 162.0 22.5 9748 105
2018 02 26 03  11 48 32.413   +10 00 21.52  .11836 1.1032 162.0 22.5 9782 105
2018 02 26 04  11 48 42.652   +09 59 36.78  .11852 1.1034 162.0 22.5 9817 105
2018 02 26 05  11 48 52.858   +09 58 52.12  .11867 1.1035 162.0 22.5 9851 105
2018 02 26 06  11 49 03.031   +09 58 07.56  .11883 1.1037 162.0 22.5 9885 105
2018 02 26 07  11 49 13.172   +09 57 23.10  .11899 1.1039 162.0 22.5 9919 105
2018 02 26 08  11 49 23.280   +09 56 38.73  .11915 1.1040 162.0 22.5 9953 105
2018 02 26 09  11 49 33.356   +09 55 54.45  .11931 1.1042 162.0 22.5 9987 105
2018 02 26 10  11 49 43.399   +09 55 10.27  .11946 1.1043 162.0 22.5 167' 105
2018 02 26 11  11 49 53.410   +09 54 26.18  .11962 1.1045 162.0 22.6 168' 105
2018 02 26 12  11 50 03.389   +09 53 42.18  .11978 1.1047 162.0 22.6 168' 105
2018 02 26 13  11 50 13.336   +09 52 58.28  .11994 1.1048 162.0 22.6 169' 105
2018 02 26 14  11 50 23.251   +09 52 14.47  .12010 1.1050 162.0 22.6 169' 105
2018 02 26 15  11 50 33.134   +09 51 30.76  .12026 1.1051 162.0 22.6 170' 105
2018 02 26 16  11 50 42.985   +09 50 47.13  .12041 1.1053 162.0 22.6 170' 105
2018 02 26 17  11 50 52.804   +09 50 03.60  .12057 1.1055 162.0 22.6 171' 105
2018 02 26 18  11 51 02.592   +09 49 20.17  .12073 1.1056 161.9 22.6 172' 105
2018 02 26 19  11 51 12.349   +09 48 36.82  .12089 1.1058 161.9 22.6 172' 105
2018 02 26 20  11 51 22.074   +09 47 53.57  .12105 1.1059 161.9 22.6 173' 105
2018 02 26 21  11 51 31.768   +09 47 10.41  .12121 1.1061 161.9 22.6 173' 105
2018 02 26 22  11 51 41.431   +09 46 27.34  .12137 1.1063 161.9 22.6 174' 105
2018 02 26 23  11 51 51.062   +09 45 44.37  .12153 1.1064 161.9 22.6 174' 105
2018 02 27 00  11 52 00.663   +09 45 01.48  .12169 1.1066 161.9 22.6 175' 105
2018 02 27 01  11 52 10.232   +09 44 18.69  .12185 1.1068 161.9 22.6 175' 105
2018 02 27 02  11 52 19.771   +09 43 35.99  .12201 1.1069 161.9 22.6 176' 105
2018 02 27 03  11 52 29.279   +09 42 53.38  .12217 1.1071 161.9 22.6 176' 105
2018 02 27 04  11 52 38.757   +09 42 10.86  .12233 1.1072 161.9 22.6 177' 105
2018 02 27 05  11 52 48.204   +09 41 28.43  .12250 1.1074 161.9 22.6 178' 105
2018 02 27 06  11 52 57.620   +09 40 46.09  .12266 1.1076 161.9 22.6 178' 105
2018 02 27 07  11 53 07.006   +09 40 03.85  .12282 1.1077 161.9 22.6 179' 105
2018 02 27 08  11 53 16.362   +09 39 21.69  .12298 1.1079 161.9 22.6 179' 105
2018 02 27 09  11 53 25.688   +09 38 39.63  .12314 1.1081 161.9 22.6 180' 105
2018 02 27 10  11 53 34.983   +09 37 57.65  .12330 1.1082 161.9 22.6 180' 105
2018 02 27 11  11 53 44.249   +09 37 15.77  .12346 1.1084 161.9 22.6 181' 105
2018 02 27 12  11 53 53.485   +09 36 33.97  .12363 1.1086 161.9 22.6 181' 105
2018 02 27 13  11 54 02.691   +09 35 52.26  .12379 1.1087 161.9 22.6 182' 105
2018 02 27 14  11 54 11.867   +09 35 10.65  .12395 1.1089 161.9 22.6 182' 105